<?xml version="1.0" encoding="UTF-8" standalone="no" ?>
<gpx xmlns="http://www.topografix.com/GPX/1/1" xmlns:xsi="http://www.w3.org/2001/XMLSchema-instance" xsi:schemaLocation="http://www.topografix.com/GPX/1/1 http://www.topografix.com/GPX/1/1/gpx.xsd" version="1.1" creator="VisuGPX - https://www.visugpx.com">
  <metadata>
    <name>Bois noirs 40kms   depart Moulin neuf</name>
    <desc><![CDATA[Rando au depart du moulin neuf entre Ferriere et le col du beaulouis et qui passe par les lieux 
incontournables de la montagne bourbonnaise]]></desc>
  </metadata>
  <trk>
    <name><![CDATA[track]]></name>
    <trkseg>
      <trkpt lat="46.01472" lon="3.67099">
        <ele>612</ele>
        <time>2011-04-04T18:53:11Z</time>
      </trkpt>
      <trkpt lat="46.01518" lon="3.6711">
        <ele>616</ele>
        <time>2011-04-04T18:53:11Z</time>
      </trkpt>
      <trkpt lat="46.01346" lon="3.67284">
        <ele>629</ele>
        <time>2011-04-04T18:53:11Z</time>
      </trkpt>
      <trkpt lat="46.01305" lon="3.67364">
        <ele>631</ele>
        <time>2011-04-04T18:53:11Z</time>
      </trkpt>
      <trkpt lat="46.01263" lon="3.67538">
        <ele>634</ele>
        <time>2011-04-04T18:53:11Z</time>
      </trkpt>
      <trkpt lat="46.01204" lon="3.67857">
        <ele>640</ele>
        <time>2011-04-04T18:53:11Z</time>
      </trkpt>
      <trkpt lat="46.01197" lon="3.67937">
        <ele>644</ele>
        <time>2011-04-04T18:53:11Z</time>
      </trkpt>
      <trkpt lat="46.01132" lon="3.68142">
        <ele>650</ele>
        <time>2011-04-04T18:53:11Z</time>
      </trkpt>
      <trkpt lat="46.01145" lon="3.6821">
        <ele>660</ele>
        <time>2011-04-04T18:53:11Z</time>
      </trkpt>
      <trkpt lat="46.01139" lon="3.68274">
        <ele>666</ele>
        <time>2011-04-04T18:53:11Z</time>
      </trkpt>
      <trkpt lat="46.01108" lon="3.68366">
        <ele>671</ele>
        <time>2011-04-04T18:53:11Z</time>
      </trkpt>
      <trkpt lat="46.01098" lon="3.68441">
        <ele>678</ele>
        <time>2011-04-04T18:53:11Z</time>
      </trkpt>
      <trkpt lat="46.01102" lon="3.68524">
        <ele>681</ele>
        <time>2011-04-04T18:53:11Z</time>
      </trkpt>
      <trkpt lat="46.01233" lon="3.68703">
        <ele>691</ele>
        <time>2011-04-04T18:53:11Z</time>
      </trkpt>
      <trkpt lat="46.0126" lon="3.68719">
        <ele>693</ele>
        <time>2011-04-04T18:53:11Z</time>
      </trkpt>
      <trkpt lat="46.01341" lon="3.68723">
        <ele>704</ele>
        <time>2011-04-04T18:53:11Z</time>
      </trkpt>
      <trkpt lat="46.01355" lon="3.68762">
        <ele>705</ele>
        <time>2011-04-04T18:53:11Z</time>
      </trkpt>
      <trkpt lat="46.0137" lon="3.68851">
        <ele>707</ele>
        <time>2011-04-04T18:53:11Z</time>
      </trkpt>
      <trkpt lat="46.01395" lon="3.68874">
        <ele>711</ele>
        <time>2011-04-04T18:53:11Z</time>
      </trkpt>
      <trkpt lat="46.01386" lon="3.68978">
        <ele>719</ele>
        <time>2011-04-04T18:53:11Z</time>
      </trkpt>
      <trkpt lat="46.0137" lon="3.69016">
        <ele>725</ele>
        <time>2011-04-04T18:53:11Z</time>
      </trkpt>
      <trkpt lat="46.01319" lon="3.69051">
        <ele>731</ele>
        <time>2011-04-04T18:53:11Z</time>
      </trkpt>
      <trkpt lat="46.01283" lon="3.69037">
        <ele>730</ele>
        <time>2011-04-04T18:53:11Z</time>
      </trkpt>
      <trkpt lat="46.01222" lon="3.69015">
        <ele>728</ele>
        <time>2011-04-04T18:53:11Z</time>
      </trkpt>
      <trkpt lat="46.01175" lon="3.69019">
        <ele>728</ele>
        <time>2011-04-04T18:53:11Z</time>
      </trkpt>
      <trkpt lat="46.01148" lon="3.6908">
        <ele>729</ele>
        <time>2011-04-04T18:53:11Z</time>
      </trkpt>
      <trkpt lat="46.01161" lon="3.69176">
        <ele>733</ele>
        <time>2011-04-04T18:53:11Z</time>
      </trkpt>
      <trkpt lat="46.0116" lon="3.69248">
        <ele>733</ele>
        <time>2011-04-04T18:53:11Z</time>
      </trkpt>
      <trkpt lat="46.01066" lon="3.69422">
        <ele>733</ele>
        <time>2011-04-04T18:53:11Z</time>
      </trkpt>
      <trkpt lat="46.01053" lon="3.6946">
        <ele>734</ele>
        <time>2011-04-04T18:53:11Z</time>
      </trkpt>
      <trkpt lat="46.01024" lon="3.69472">
        <ele>726</ele>
        <time>2011-04-04T18:53:11Z</time>
      </trkpt>
      <trkpt lat="46.00951" lon="3.69426">
        <ele>729</ele>
        <time>2011-04-04T18:53:11Z</time>
      </trkpt>
      <trkpt lat="46.00888" lon="3.6942">
        <ele>737</ele>
        <time>2011-04-04T18:53:11Z</time>
      </trkpt>
      <trkpt lat="46.008" lon="3.69418">
        <ele>743</ele>
        <time>2011-04-04T18:53:11Z</time>
      </trkpt>
      <trkpt lat="46.00735" lon="3.69434">
        <ele>747</ele>
        <time>2011-04-04T18:53:11Z</time>
      </trkpt>
      <trkpt lat="46.00605" lon="3.69601">
        <ele>758</ele>
        <time>2011-04-04T18:53:11Z</time>
      </trkpt>
      <trkpt lat="46.00516" lon="3.69684">
        <ele>753</ele>
        <time>2011-04-04T18:53:11Z</time>
      </trkpt>
      <trkpt lat="46.00492" lon="3.69725">
        <ele>753</ele>
        <time>2011-04-04T18:53:11Z</time>
      </trkpt>
      <trkpt lat="46.00445" lon="3.6977">
        <ele>750</ele>
        <time>2011-04-04T18:53:11Z</time>
      </trkpt>
      <trkpt lat="46.00366" lon="3.69892">
        <ele>756</ele>
        <time>2011-04-04T18:53:11Z</time>
      </trkpt>
      <trkpt lat="46.00316" lon="3.69865">
        <ele>747</ele>
        <time>2011-04-04T18:53:11Z</time>
      </trkpt>
      <trkpt lat="46.00278" lon="3.69862">
        <ele>751</ele>
        <time>2011-04-04T18:53:11Z</time>
      </trkpt>
      <trkpt lat="46.00164" lon="3.69905">
        <ele>765</ele>
        <time>2011-04-04T18:53:11Z</time>
      </trkpt>
      <trkpt lat="46.00113" lon="3.69948">
        <ele>771</ele>
        <time>2011-04-04T18:53:11Z</time>
      </trkpt>
      <trkpt lat="46.0001" lon="3.69997">
        <ele>763</ele>
        <time>2011-04-04T18:53:11Z</time>
      </trkpt>
      <trkpt lat="45.99958" lon="3.69965">
        <ele>751</ele>
        <time>2011-04-04T18:53:11Z</time>
      </trkpt>
      <trkpt lat="45.99919" lon="3.69935">
        <ele>746</ele>
        <time>2011-04-04T18:53:11Z</time>
      </trkpt>
      <trkpt lat="45.9986" lon="3.69913">
        <ele>745</ele>
        <time>2011-04-04T18:53:11Z</time>
      </trkpt>
      <trkpt lat="45.99861" lon="3.69818">
        <ele>738</ele>
        <time>2011-04-04T18:53:11Z</time>
      </trkpt>
      <trkpt lat="45.99787" lon="3.69713">
        <ele>759</ele>
        <time>2011-04-04T18:53:11Z</time>
      </trkpt>
      <trkpt lat="45.99768" lon="3.69637">
        <ele>761</ele>
        <time>2011-04-04T18:53:11Z</time>
      </trkpt>
      <trkpt lat="45.99753" lon="3.69495">
        <ele>761</ele>
        <time>2011-04-04T18:53:11Z</time>
      </trkpt>
      <trkpt lat="45.99803" lon="3.6938">
        <ele>757</ele>
        <time>2011-04-04T18:53:11Z</time>
      </trkpt>
      <trkpt lat="45.99876" lon="3.69299">
        <ele>763</ele>
        <time>2011-04-04T18:53:11Z</time>
      </trkpt>
      <trkpt lat="45.99908" lon="3.69228">
        <ele>772</ele>
        <time>2011-04-04T18:53:11Z</time>
      </trkpt>
      <trkpt lat="45.9984" lon="3.69275">
        <ele>775</ele>
        <time>2011-04-04T18:53:11Z</time>
      </trkpt>
      <trkpt lat="45.99765" lon="3.69291">
        <ele>790</ele>
        <time>2011-04-04T18:53:11Z</time>
      </trkpt>
      <trkpt lat="45.99712" lon="3.69318">
        <ele>799</ele>
        <time>2011-04-04T18:53:11Z</time>
      </trkpt>
      <trkpt lat="45.99624" lon="3.6944">
        <ele>805</ele>
        <time>2011-04-04T18:53:11Z</time>
      </trkpt>
      <trkpt lat="45.99537" lon="3.69539">
        <ele>819</ele>
        <time>2011-04-04T18:53:11Z</time>
      </trkpt>
      <trkpt lat="45.99514" lon="3.69608">
        <ele>821</ele>
        <time>2011-04-04T18:53:11Z</time>
      </trkpt>
      <trkpt lat="45.99403" lon="3.69752">
        <ele>844</ele>
        <time>2011-04-04T18:53:11Z</time>
      </trkpt>
      <trkpt lat="45.99313" lon="3.69995">
        <ele>871</ele>
        <time>2011-04-04T18:53:11Z</time>
      </trkpt>
      <trkpt lat="45.99306" lon="3.70036">
        <ele>874</ele>
        <time>2011-04-04T18:53:11Z</time>
      </trkpt>
      <trkpt lat="45.99284" lon="3.70038">
        <ele>878</ele>
        <time>2011-04-04T18:53:11Z</time>
      </trkpt>
      <trkpt lat="45.99253" lon="3.69945">
        <ele>874</ele>
        <time>2011-04-04T18:53:11Z</time>
      </trkpt>
      <trkpt lat="45.99253" lon="3.69818">
        <ele>871</ele>
        <time>2011-04-04T18:53:11Z</time>
      </trkpt>
      <trkpt lat="45.99291" lon="3.69731">
        <ele>870</ele>
        <time>2011-04-04T18:53:11Z</time>
      </trkpt>
      <trkpt lat="45.9929" lon="3.69708">
        <ele>871</ele>
        <time>2011-04-04T18:53:11Z</time>
      </trkpt>
      <trkpt lat="45.99271" lon="3.69671">
        <ele>876</ele>
        <time>2011-04-04T18:53:11Z</time>
      </trkpt>
      <trkpt lat="45.99276" lon="3.69651">
        <ele>878</ele>
        <time>2011-04-04T18:53:11Z</time>
      </trkpt>
      <trkpt lat="45.99267" lon="3.69638">
        <ele>881</ele>
        <time>2011-04-04T18:53:11Z</time>
      </trkpt>
      <trkpt lat="45.99259" lon="3.69583">
        <ele>887</ele>
        <time>2011-04-04T18:53:11Z</time>
      </trkpt>
      <trkpt lat="45.99267" lon="3.69558">
        <ele>891</ele>
        <time>2011-04-04T18:53:11Z</time>
      </trkpt>
      <trkpt lat="45.99308" lon="3.6953">
        <ele>893</ele>
        <time>2011-04-04T18:53:11Z</time>
      </trkpt>
      <trkpt lat="45.99369" lon="3.69462">
        <ele>875</ele>
        <time>2011-04-04T18:53:11Z</time>
      </trkpt>
      <trkpt lat="45.99347" lon="3.69433">
        <ele>878</ele>
        <time>2011-04-04T18:53:11Z</time>
      </trkpt>
      <trkpt lat="45.99313" lon="3.69314">
        <ele>865</ele>
        <time>2011-04-04T18:53:11Z</time>
      </trkpt>
      <trkpt lat="45.99279" lon="3.69302">
        <ele>859</ele>
        <time>2011-04-04T18:53:11Z</time>
      </trkpt>
      <trkpt lat="45.99252" lon="3.69302">
        <ele>854</ele>
        <time>2011-04-04T18:53:11Z</time>
      </trkpt>
      <trkpt lat="45.99208" lon="3.69337">
        <ele>849</ele>
        <time>2011-04-04T18:53:11Z</time>
      </trkpt>
      <trkpt lat="45.99147" lon="3.69361">
        <ele>838</ele>
        <time>2011-04-04T18:53:11Z</time>
      </trkpt>
      <trkpt lat="45.99097" lon="3.69417">
        <ele>834</ele>
        <time>2011-04-04T18:53:11Z</time>
      </trkpt>
      <trkpt lat="45.99047" lon="3.69441">
        <ele>825</ele>
        <time>2011-04-04T18:53:11Z</time>
      </trkpt>
      <trkpt lat="45.98952" lon="3.69527">
        <ele>812</ele>
        <time>2011-04-04T18:53:11Z</time>
      </trkpt>
      <trkpt lat="45.98809" lon="3.69629">
        <ele>791</ele>
        <time>2011-04-04T18:53:11Z</time>
      </trkpt>
      <trkpt lat="45.98763" lon="3.69646">
        <ele>786</ele>
        <time>2011-04-04T18:53:11Z</time>
      </trkpt>
      <trkpt lat="45.98747" lon="3.69627">
        <ele>782</ele>
        <time>2011-04-04T18:53:11Z</time>
      </trkpt>
      <trkpt lat="45.98666" lon="3.69669">
        <ele>779</ele>
        <time>2011-04-04T18:53:11Z</time>
      </trkpt>
      <trkpt lat="45.98592" lon="3.6968">
        <ele>778</ele>
        <time>2011-04-04T18:53:11Z</time>
      </trkpt>
      <trkpt lat="45.98467" lon="3.69639">
        <ele>769</ele>
        <time>2011-04-04T18:53:11Z</time>
      </trkpt>
      <trkpt lat="45.98422" lon="3.69591">
        <ele>759</ele>
        <time>2011-04-04T18:53:11Z</time>
      </trkpt>
      <trkpt lat="45.98397" lon="3.69601">
        <ele>757</ele>
        <time>2011-04-04T18:53:11Z</time>
      </trkpt>
      <trkpt lat="45.98282" lon="3.69755">
        <ele>755</ele>
        <time>2011-04-04T18:53:11Z</time>
      </trkpt>
      <trkpt lat="45.98227" lon="3.69785">
        <ele>755</ele>
        <time>2011-04-04T18:53:11Z</time>
      </trkpt>
      <trkpt lat="45.98208" lon="3.69901">
        <ele>758</ele>
        <time>2011-04-04T18:53:11Z</time>
      </trkpt>
      <trkpt lat="45.98165" lon="3.70042">
        <ele>760</ele>
        <time>2011-04-04T18:53:11Z</time>
      </trkpt>
      <trkpt lat="45.98118" lon="3.7004">
        <ele>767</ele>
        <time>2011-04-04T18:53:11Z</time>
      </trkpt>
      <trkpt lat="45.98088" lon="3.70022">
        <ele>772</ele>
        <time>2011-04-04T18:53:11Z</time>
      </trkpt>
      <trkpt lat="45.98032" lon="3.69863">
        <ele>783</ele>
        <time>2011-04-04T18:53:11Z</time>
      </trkpt>
      <trkpt lat="45.97986" lon="3.69807">
        <ele>790</ele>
        <time>2011-04-04T18:53:11Z</time>
      </trkpt>
      <trkpt lat="45.97918" lon="3.69746">
        <ele>798</ele>
        <time>2011-04-04T18:53:11Z</time>
      </trkpt>
      <trkpt lat="45.97868" lon="3.69724">
        <ele>802</ele>
        <time>2011-04-04T18:53:11Z</time>
      </trkpt>
      <trkpt lat="45.97846" lon="3.69745">
        <ele>807</ele>
        <time>2011-04-04T18:53:11Z</time>
      </trkpt>
      <trkpt lat="45.97821" lon="3.69721">
        <ele>806</ele>
        <time>2011-04-04T18:53:11Z</time>
      </trkpt>
      <trkpt lat="45.97793" lon="3.69712">
        <ele>808</ele>
        <time>2011-04-04T18:53:11Z</time>
      </trkpt>
      <trkpt lat="45.97636" lon="3.69719">
        <ele>809</ele>
        <time>2011-04-04T18:53:11Z</time>
      </trkpt>
      <trkpt lat="45.97444" lon="3.69704">
        <ele>808</ele>
        <time>2011-04-04T18:53:11Z</time>
      </trkpt>
      <trkpt lat="45.97406" lon="3.69654">
        <ele>805</ele>
        <time>2011-04-04T18:53:11Z</time>
      </trkpt>
      <trkpt lat="45.97401" lon="3.69628">
        <ele>804</ele>
        <time>2011-04-04T18:53:11Z</time>
      </trkpt>
      <trkpt lat="45.974" lon="3.69571">
        <ele>803</ele>
        <time>2011-04-04T18:53:11Z</time>
      </trkpt>
      <trkpt lat="45.97421" lon="3.69522">
        <ele>803</ele>
        <time>2011-04-04T18:53:11Z</time>
      </trkpt>
      <trkpt lat="45.97393" lon="3.69385">
        <ele>814</ele>
        <time>2011-04-04T18:53:11Z</time>
      </trkpt>
      <trkpt lat="45.97328" lon="3.69262">
        <ele>822</ele>
        <time>2011-04-04T18:53:11Z</time>
      </trkpt>
      <trkpt lat="45.97279" lon="3.69209">
        <ele>830</ele>
        <time>2011-04-04T18:53:11Z</time>
      </trkpt>
      <trkpt lat="45.97267" lon="3.69149">
        <ele>831</ele>
        <time>2011-04-04T18:53:11Z</time>
      </trkpt>
      <trkpt lat="45.97228" lon="3.69112">
        <ele>841</ele>
        <time>2011-04-04T18:53:11Z</time>
      </trkpt>
      <trkpt lat="45.97211" lon="3.69125">
        <ele>845</ele>
        <time>2011-04-04T18:53:11Z</time>
      </trkpt>
      <trkpt lat="45.97179" lon="3.69119">
        <ele>852</ele>
        <time>2011-04-04T18:53:11Z</time>
      </trkpt>
      <trkpt lat="45.97113" lon="3.69076">
        <ele>860</ele>
        <time>2011-04-04T18:53:11Z</time>
      </trkpt>
      <trkpt lat="45.97054" lon="3.69015">
        <ele>864</ele>
        <time>2011-04-04T18:53:11Z</time>
      </trkpt>
      <trkpt lat="45.97004" lon="3.68998">
        <ele>867</ele>
        <time>2011-04-04T18:53:11Z</time>
      </trkpt>
      <trkpt lat="45.96917" lon="3.69014">
        <ele>875</ele>
        <time>2011-04-04T18:53:11Z</time>
      </trkpt>
      <trkpt lat="45.96868" lon="3.69049">
        <ele>882</ele>
        <time>2011-04-04T18:53:11Z</time>
      </trkpt>
      <trkpt lat="45.96822" lon="3.69043">
        <ele>886</ele>
        <time>2011-04-04T18:53:11Z</time>
      </trkpt>
      <trkpt lat="45.96763" lon="3.69013">
        <ele>888</ele>
        <time>2011-04-04T18:53:11Z</time>
      </trkpt>
      <trkpt lat="45.96707" lon="3.68968">
        <ele>890</ele>
        <time>2011-04-04T18:53:11Z</time>
      </trkpt>
      <trkpt lat="45.96664" lon="3.68951">
        <ele>891</ele>
        <time>2011-04-04T18:53:11Z</time>
      </trkpt>
      <trkpt lat="45.96539" lon="3.68938">
        <ele>901</ele>
        <time>2011-04-04T18:53:11Z</time>
      </trkpt>
      <trkpt lat="45.96492" lon="3.68916">
        <ele>906</ele>
        <time>2011-04-04T18:53:11Z</time>
      </trkpt>
      <trkpt lat="45.9644" lon="3.68871">
        <ele>908</ele>
        <time>2011-04-04T18:53:11Z</time>
      </trkpt>
      <trkpt lat="45.96269" lon="3.68593">
        <ele>920</ele>
        <time>2011-04-04T18:53:11Z</time>
      </trkpt>
      <trkpt lat="45.96236" lon="3.6851">
        <ele>925</ele>
        <time>2011-04-04T18:53:11Z</time>
      </trkpt>
      <trkpt lat="45.96232" lon="3.6867">
        <ele>934</ele>
        <time>2011-04-04T18:53:11Z</time>
      </trkpt>
      <trkpt lat="45.96232" lon="3.68858">
        <ele>946</ele>
        <time>2011-04-04T18:53:11Z</time>
      </trkpt>
      <trkpt lat="45.96206" lon="3.69066">
        <ele>964</ele>
        <time>2011-04-04T18:53:11Z</time>
      </trkpt>
      <trkpt lat="45.96162" lon="3.69135">
        <ele>969</ele>
        <time>2011-04-04T18:53:11Z</time>
      </trkpt>
      <trkpt lat="45.96145" lon="3.69173">
        <ele>970</ele>
        <time>2011-04-04T18:53:11Z</time>
      </trkpt>
      <trkpt lat="45.96145" lon="3.69194">
        <ele>970</ele>
        <time>2011-04-04T18:53:11Z</time>
      </trkpt>
      <trkpt lat="45.96173" lon="3.69226">
        <ele>969</ele>
        <time>2011-04-04T18:53:11Z</time>
      </trkpt>
      <trkpt lat="45.96215" lon="3.69361">
        <ele>966</ele>
        <time>2011-04-04T18:53:11Z</time>
      </trkpt>
      <trkpt lat="45.96178" lon="3.6943">
        <ele>960</ele>
        <time>2011-04-04T18:53:11Z</time>
      </trkpt>
      <trkpt lat="45.96233" lon="3.69467">
        <ele>958</ele>
        <time>2011-04-04T18:53:11Z</time>
      </trkpt>
      <trkpt lat="45.96208" lon="3.695">
        <ele>953</ele>
        <time>2011-04-04T18:53:11Z</time>
      </trkpt>
      <trkpt lat="45.96145" lon="3.69522">
        <ele>944</ele>
        <time>2011-04-04T18:53:11Z</time>
      </trkpt>
      <trkpt lat="45.96089" lon="3.69494">
        <ele>940</ele>
        <time>2011-04-04T18:53:11Z</time>
      </trkpt>
      <trkpt lat="45.96041" lon="3.6947">
        <ele>937</ele>
        <time>2011-04-04T18:53:11Z</time>
      </trkpt>
      <trkpt lat="45.96017" lon="3.69469">
        <ele>934</ele>
        <time>2011-04-04T18:53:11Z</time>
      </trkpt>
      <trkpt lat="45.95995" lon="3.69505">
        <ele>925</ele>
        <time>2011-04-04T18:53:11Z</time>
      </trkpt>
      <trkpt lat="45.95974" lon="3.69605">
        <ele>912</ele>
        <time>2011-04-04T18:53:11Z</time>
      </trkpt>
      <trkpt lat="45.95926" lon="3.69617">
        <ele>921</ele>
        <time>2011-04-04T18:53:11Z</time>
      </trkpt>
      <trkpt lat="45.95915" lon="3.69635">
        <ele>921</ele>
        <time>2011-04-04T18:53:11Z</time>
      </trkpt>
      <trkpt lat="45.95914" lon="3.69663">
        <ele>920</ele>
        <time>2011-04-04T18:53:11Z</time>
      </trkpt>
      <trkpt lat="45.95923" lon="3.69692">
        <ele>918</ele>
        <time>2011-04-04T18:53:11Z</time>
      </trkpt>
      <trkpt lat="45.95941" lon="3.69705">
        <ele>914</ele>
        <time>2011-04-04T18:53:11Z</time>
      </trkpt>
      <trkpt lat="45.9594" lon="3.69741">
        <ele>914</ele>
        <time>2011-04-04T18:53:11Z</time>
      </trkpt>
      <trkpt lat="45.95937" lon="3.69762">
        <ele>915</ele>
        <time>2011-04-04T18:53:11Z</time>
      </trkpt>
      <trkpt lat="45.95945" lon="3.69819">
        <ele>912</ele>
        <time>2011-04-04T18:53:11Z</time>
      </trkpt>
      <trkpt lat="45.9593" lon="3.6986">
        <ele>911</ele>
        <time>2011-04-04T18:53:11Z</time>
      </trkpt>
      <trkpt lat="45.95892" lon="3.69871">
        <ele>912</ele>
        <time>2011-04-04T18:53:11Z</time>
      </trkpt>
      <trkpt lat="45.95745" lon="3.69868">
        <ele>913</ele>
        <time>2011-04-04T18:53:11Z</time>
      </trkpt>
      <trkpt lat="45.95675" lon="3.6984">
        <ele>918</ele>
        <time>2011-04-04T18:53:11Z</time>
      </trkpt>
      <trkpt lat="45.95644" lon="3.69845">
        <ele>918</ele>
        <time>2011-04-04T18:53:11Z</time>
      </trkpt>
      <trkpt lat="45.95608" lon="3.69882">
        <ele>919</ele>
        <time>2011-04-04T18:53:11Z</time>
      </trkpt>
      <trkpt lat="45.95547" lon="3.69974">
        <ele>923</ele>
        <time>2011-04-04T18:53:11Z</time>
      </trkpt>
      <trkpt lat="45.95532" lon="3.70041">
        <ele>923</ele>
        <time>2011-04-04T18:53:11Z</time>
      </trkpt>
      <trkpt lat="45.95497" lon="3.70117">
        <ele>926</ele>
        <time>2011-04-04T18:53:11Z</time>
      </trkpt>
      <trkpt lat="45.95457" lon="3.70155">
        <ele>927</ele>
        <time>2011-04-04T18:53:11Z</time>
      </trkpt>
      <trkpt lat="45.95436" lon="3.70193">
        <ele>923</ele>
        <time>2011-04-04T18:53:11Z</time>
      </trkpt>
      <trkpt lat="45.95494" lon="3.7022">
        <ele>915</ele>
        <time>2011-04-04T18:53:11Z</time>
      </trkpt>
      <trkpt lat="45.95589" lon="3.70246">
        <ele>904</ele>
        <time>2011-04-04T18:53:11Z</time>
      </trkpt>
      <trkpt lat="45.95716" lon="3.70308">
        <ele>897</ele>
        <time>2011-04-04T18:53:11Z</time>
      </trkpt>
      <trkpt lat="45.95754" lon="3.70312">
        <ele>895</ele>
        <time>2011-04-04T18:53:11Z</time>
      </trkpt>
      <trkpt lat="45.95792" lon="3.70246">
        <ele>892</ele>
        <time>2011-04-04T18:53:11Z</time>
      </trkpt>
      <trkpt lat="45.95874" lon="3.70204">
        <ele>874</ele>
        <time>2011-04-04T18:53:11Z</time>
      </trkpt>
      <trkpt lat="45.95901" lon="3.70179">
        <ele>867</ele>
        <time>2011-04-04T18:53:11Z</time>
      </trkpt>
      <trkpt lat="45.95954" lon="3.7009">
        <ele>866</ele>
        <time>2011-04-04T18:53:11Z</time>
      </trkpt>
      <trkpt lat="45.96064" lon="3.70095">
        <ele>867</ele>
        <time>2011-04-04T18:53:11Z</time>
      </trkpt>
      <trkpt lat="45.96138" lon="3.70038">
        <ele>860</ele>
        <time>2011-04-04T18:53:11Z</time>
      </trkpt>
      <trkpt lat="45.96173" lon="3.69987">
        <ele>867</ele>
        <time>2011-04-04T18:53:11Z</time>
      </trkpt>
      <trkpt lat="45.96211" lon="3.70026">
        <ele>869</ele>
        <time>2011-04-04T18:53:11Z</time>
      </trkpt>
      <trkpt lat="45.96228" lon="3.70063">
        <ele>866</ele>
        <time>2011-04-04T18:53:11Z</time>
      </trkpt>
      <trkpt lat="45.96312" lon="3.70106">
        <ele>867</ele>
        <time>2011-04-04T18:53:11Z</time>
      </trkpt>
      <trkpt lat="45.96391" lon="3.70124">
        <ele>861</ele>
        <time>2011-04-04T18:53:11Z</time>
      </trkpt>
      <trkpt lat="45.96391" lon="3.70142">
        <ele>858</ele>
        <time>2011-04-04T18:53:11Z</time>
      </trkpt>
      <trkpt lat="45.96298" lon="3.7022">
        <ele>853</ele>
        <time>2011-04-04T18:53:11Z</time>
      </trkpt>
      <trkpt lat="45.96267" lon="3.70234">
        <ele>850</ele>
        <time>2011-04-04T18:53:11Z</time>
      </trkpt>
      <trkpt lat="45.96239" lon="3.70231">
        <ele>848</ele>
        <time>2011-04-04T18:53:11Z</time>
      </trkpt>
      <trkpt lat="45.96205" lon="3.70202">
        <ele>846</ele>
        <time>2011-04-04T18:53:11Z</time>
      </trkpt>
      <trkpt lat="45.96188" lon="3.70217">
        <ele>843</ele>
        <time>2011-04-04T18:53:11Z</time>
      </trkpt>
      <trkpt lat="45.96175" lon="3.7026">
        <ele>841</ele>
        <time>2011-04-04T18:53:11Z</time>
      </trkpt>
      <trkpt lat="45.96148" lon="3.7028">
        <ele>842</ele>
        <time>2011-04-04T18:53:11Z</time>
      </trkpt>
      <trkpt lat="45.96076" lon="3.70294">
        <ele>841</ele>
        <time>2011-04-04T18:53:11Z</time>
      </trkpt>
      <trkpt lat="45.96051" lon="3.70309">
        <ele>839</ele>
        <time>2011-04-04T18:53:11Z</time>
      </trkpt>
      <trkpt lat="45.96043" lon="3.70332">
        <ele>840</ele>
        <time>2011-04-04T18:53:11Z</time>
      </trkpt>
      <trkpt lat="45.96053" lon="3.70374">
        <ele>838</ele>
        <time>2011-04-04T18:53:11Z</time>
      </trkpt>
      <trkpt lat="45.9604" lon="3.70456">
        <ele>836</ele>
        <time>2011-04-04T18:53:11Z</time>
      </trkpt>
      <trkpt lat="45.96027" lon="3.70474">
        <ele>835</ele>
        <time>2011-04-04T18:53:11Z</time>
      </trkpt>
      <trkpt lat="45.95958" lon="3.70508">
        <ele>830</ele>
        <time>2011-04-04T18:53:11Z</time>
      </trkpt>
      <trkpt lat="45.95913" lon="3.7054">
        <ele>830</ele>
        <time>2011-04-04T18:53:11Z</time>
      </trkpt>
      <trkpt lat="45.95887" lon="3.70573">
        <ele>831</ele>
        <time>2011-04-04T18:53:11Z</time>
      </trkpt>
      <trkpt lat="45.95867" lon="3.70606">
        <ele>835</ele>
        <time>2011-04-04T18:53:11Z</time>
      </trkpt>
      <trkpt lat="45.95863" lon="3.70632">
        <ele>839</ele>
        <time>2011-04-04T18:53:11Z</time>
      </trkpt>
      <trkpt lat="45.95879" lon="3.70658">
        <ele>844</ele>
        <time>2011-04-04T18:53:11Z</time>
      </trkpt>
      <trkpt lat="45.95971" lon="3.7066">
        <ele>836</ele>
        <time>2011-04-04T18:53:11Z</time>
      </trkpt>
      <trkpt lat="45.96015" lon="3.70687">
        <ele>836</ele>
        <time>2011-04-04T18:53:11Z</time>
      </trkpt>
      <trkpt lat="45.96082" lon="3.70831">
        <ele>850</ele>
        <time>2011-04-04T18:53:11Z</time>
      </trkpt>
      <trkpt lat="45.96136" lon="3.7083">
        <ele>848</ele>
        <time>2011-04-04T18:53:11Z</time>
      </trkpt>
      <trkpt lat="45.96371" lon="3.70877">
        <ele>842</ele>
        <time>2011-04-04T18:53:11Z</time>
      </trkpt>
      <trkpt lat="45.96449" lon="3.70951">
        <ele>836</ele>
        <time>2011-04-04T18:53:11Z</time>
      </trkpt>
      <trkpt lat="45.96469" lon="3.70939">
        <ele>833</ele>
        <time>2011-04-04T18:53:11Z</time>
      </trkpt>
      <trkpt lat="45.96501" lon="3.70875">
        <ele>829</ele>
        <time>2011-04-04T18:53:11Z</time>
      </trkpt>
      <trkpt lat="45.96521" lon="3.70852">
        <ele>827</ele>
        <time>2011-04-04T18:53:11Z</time>
      </trkpt>
      <trkpt lat="45.96549" lon="3.70786">
        <ele>821</ele>
        <time>2011-04-04T18:53:11Z</time>
      </trkpt>
      <trkpt lat="45.96571" lon="3.70758">
        <ele>816</ele>
        <time>2011-04-04T18:53:11Z</time>
      </trkpt>
      <trkpt lat="45.96607" lon="3.70738">
        <ele>810</ele>
        <time>2011-04-04T18:53:11Z</time>
      </trkpt>
      <trkpt lat="45.96643" lon="3.70739">
        <ele>803</ele>
        <time>2011-04-04T18:53:11Z</time>
      </trkpt>
      <trkpt lat="45.96666" lon="3.70758">
        <ele>799</ele>
        <time>2011-04-04T18:53:11Z</time>
      </trkpt>
      <trkpt lat="45.96687" lon="3.70797">
        <ele>796</ele>
        <time>2011-04-04T18:53:11Z</time>
      </trkpt>
      <trkpt lat="45.96712" lon="3.70857">
        <ele>786</ele>
        <time>2011-04-04T18:53:11Z</time>
      </trkpt>
      <trkpt lat="45.96735" lon="3.70886">
        <ele>778</ele>
        <time>2011-04-04T18:53:11Z</time>
      </trkpt>
      <trkpt lat="45.96811" lon="3.70849">
        <ele>788</ele>
        <time>2011-04-04T18:53:11Z</time>
      </trkpt>
      <trkpt lat="45.96855" lon="3.70871">
        <ele>803</ele>
        <time>2011-04-04T18:53:11Z</time>
      </trkpt>
      <trkpt lat="45.96912" lon="3.7095">
        <ele>807</ele>
        <time>2011-04-04T18:53:11Z</time>
      </trkpt>
      <trkpt lat="45.96927" lon="3.7103">
        <ele>803</ele>
        <time>2011-04-04T18:53:11Z</time>
      </trkpt>
      <trkpt lat="45.96931" lon="3.71141">
        <ele>805</ele>
        <time>2011-04-04T18:53:11Z</time>
      </trkpt>
      <trkpt lat="45.96955" lon="3.71235">
        <ele>814</ele>
        <time>2011-04-04T18:53:11Z</time>
      </trkpt>
      <trkpt lat="45.97" lon="3.7129">
        <ele>817</ele>
        <time>2011-04-04T18:53:11Z</time>
      </trkpt>
      <trkpt lat="45.97111" lon="3.71319">
        <ele>801</ele>
        <time>2011-04-04T18:53:11Z</time>
      </trkpt>
      <trkpt lat="45.97169" lon="3.71281">
        <ele>798</ele>
        <time>2011-04-04T18:53:11Z</time>
      </trkpt>
      <trkpt lat="45.97209" lon="3.71221">
        <ele>801</ele>
        <time>2011-04-04T18:53:11Z</time>
      </trkpt>
      <trkpt lat="45.9727" lon="3.7109">
        <ele>813</ele>
        <time>2011-04-04T18:53:11Z</time>
      </trkpt>
      <trkpt lat="45.97293" lon="3.71021">
        <ele>819</ele>
        <time>2011-04-04T18:53:11Z</time>
      </trkpt>
      <trkpt lat="45.97318" lon="3.70981">
        <ele>820</ele>
        <time>2011-04-04T18:53:11Z</time>
      </trkpt>
      <trkpt lat="45.97391" lon="3.70941">
        <ele>824</ele>
        <time>2011-04-04T18:53:11Z</time>
      </trkpt>
      <trkpt lat="45.97471" lon="3.71028">
        <ele>829</ele>
        <time>2011-04-04T18:53:11Z</time>
      </trkpt>
      <trkpt lat="45.97657" lon="3.7111">
        <ele>837</ele>
        <time>2011-04-04T18:53:11Z</time>
      </trkpt>
      <trkpt lat="45.97806" lon="3.71112">
        <ele>838</ele>
        <time>2011-04-04T18:53:11Z</time>
      </trkpt>
      <trkpt lat="45.97909" lon="3.71088">
        <ele>825</ele>
        <time>2011-04-04T18:53:11Z</time>
      </trkpt>
      <trkpt lat="45.97977" lon="3.71147">
        <ele>818</ele>
        <time>2011-04-04T18:53:11Z</time>
      </trkpt>
      <trkpt lat="45.98014" lon="3.71161">
        <ele>817</ele>
        <time>2011-04-04T18:53:11Z</time>
      </trkpt>
      <trkpt lat="45.98073" lon="3.71105">
        <ele>816</ele>
        <time>2011-04-04T18:53:11Z</time>
      </trkpt>
      <trkpt lat="45.98112" lon="3.71109">
        <ele>822</ele>
        <time>2011-04-04T18:53:11Z</time>
      </trkpt>
      <trkpt lat="45.98259" lon="3.71162">
        <ele>846</ele>
        <time>2011-04-04T18:53:11Z</time>
      </trkpt>
      <trkpt lat="45.98224" lon="3.71365">
        <ele>862</ele>
        <time>2011-04-04T18:53:11Z</time>
      </trkpt>
      <trkpt lat="45.98222" lon="3.71396">
        <ele>862</ele>
        <time>2011-04-04T18:53:11Z</time>
      </trkpt>
      <trkpt lat="45.98234" lon="3.71427">
        <ele>861</ele>
        <time>2011-04-04T18:53:11Z</time>
      </trkpt>
      <trkpt lat="45.98275" lon="3.71454">
        <ele>865</ele>
        <time>2011-04-04T18:53:11Z</time>
      </trkpt>
      <trkpt lat="45.98371" lon="3.71448">
        <ele>880</ele>
        <time>2011-04-04T18:53:11Z</time>
      </trkpt>
      <trkpt lat="45.98406" lon="3.71483">
        <ele>882</ele>
        <time>2011-04-04T18:53:11Z</time>
      </trkpt>
      <trkpt lat="45.98434" lon="3.7154">
        <ele>886</ele>
        <time>2011-04-04T18:53:11Z</time>
      </trkpt>
      <trkpt lat="45.98462" lon="3.71634">
        <ele>888</ele>
        <time>2011-04-04T18:53:11Z</time>
      </trkpt>
      <trkpt lat="45.98604" lon="3.7179">
        <ele>901</ele>
        <time>2011-04-04T18:53:11Z</time>
      </trkpt>
      <trkpt lat="45.98605" lon="3.71901">
        <ele>898</ele>
        <time>2011-04-04T18:53:11Z</time>
      </trkpt>
      <trkpt lat="45.98638" lon="3.72077">
        <ele>898</ele>
        <time>2011-04-04T18:53:11Z</time>
      </trkpt>
      <trkpt lat="45.9864" lon="3.72126">
        <ele>897</ele>
        <time>2011-04-04T18:53:11Z</time>
      </trkpt>
      <trkpt lat="45.98632" lon="3.72165">
        <ele>896</ele>
        <time>2011-04-04T18:53:11Z</time>
      </trkpt>
      <trkpt lat="45.9861" lon="3.72206">
        <ele>894</ele>
        <time>2011-04-04T18:53:11Z</time>
      </trkpt>
      <trkpt lat="45.98595" lon="3.72257">
        <ele>894</ele>
        <time>2011-04-04T18:53:11Z</time>
      </trkpt>
      <trkpt lat="45.98567" lon="3.7244">
        <ele>888</ele>
        <time>2011-04-04T18:53:11Z</time>
      </trkpt>
      <trkpt lat="45.98525" lon="3.72516">
        <ele>881</ele>
        <time>2011-04-04T18:53:11Z</time>
      </trkpt>
      <trkpt lat="45.98478" lon="3.72657">
        <ele>870</ele>
        <time>2011-04-04T18:53:11Z</time>
      </trkpt>
      <trkpt lat="45.98466" lon="3.7278">
        <ele>862</ele>
        <time>2011-04-04T18:53:11Z</time>
      </trkpt>
      <trkpt lat="45.98463" lon="3.72907">
        <ele>854</ele>
        <time>2011-04-04T18:53:11Z</time>
      </trkpt>
      <trkpt lat="45.98469" lon="3.72977">
        <ele>851</ele>
        <time>2011-04-04T18:53:11Z</time>
      </trkpt>
      <trkpt lat="45.98521" lon="3.73125">
        <ele>854</ele>
        <time>2011-04-04T18:53:11Z</time>
      </trkpt>
      <trkpt lat="45.98569" lon="3.73193">
        <ele>852</ele>
        <time>2011-04-04T18:53:11Z</time>
      </trkpt>
      <trkpt lat="45.98613" lon="3.73238">
        <ele>849</ele>
        <time>2011-04-04T18:53:11Z</time>
      </trkpt>
      <trkpt lat="45.98684" lon="3.7324">
        <ele>849</ele>
        <time>2011-04-04T18:53:11Z</time>
      </trkpt>
      <trkpt lat="45.98756" lon="3.73219">
        <ele>840</ele>
        <time>2011-04-04T18:53:11Z</time>
      </trkpt>
      <trkpt lat="45.98835" lon="3.73048">
        <ele>832</ele>
        <time>2011-04-04T18:53:11Z</time>
      </trkpt>
      <trkpt lat="45.98865" lon="3.72858">
        <ele>823</ele>
        <time>2011-04-04T18:53:11Z</time>
      </trkpt>
      <trkpt lat="45.98896" lon="3.72758">
        <ele>831</ele>
        <time>2011-04-04T18:53:11Z</time>
      </trkpt>
      <trkpt lat="45.98944" lon="3.72702">
        <ele>829</ele>
        <time>2011-04-04T18:53:11Z</time>
      </trkpt>
      <trkpt lat="45.98939" lon="3.72643">
        <ele>837</ele>
        <time>2011-04-04T18:53:11Z</time>
      </trkpt>
      <trkpt lat="45.98978" lon="3.72592">
        <ele>840</ele>
        <time>2011-04-04T18:53:11Z</time>
      </trkpt>
      <trkpt lat="45.99064" lon="3.72563">
        <ele>843</ele>
        <time>2011-04-04T18:53:11Z</time>
      </trkpt>
      <trkpt lat="45.99122" lon="3.72567">
        <ele>836</ele>
        <time>2011-04-04T18:53:11Z</time>
      </trkpt>
      <trkpt lat="45.9919" lon="3.72486">
        <ele>840</ele>
        <time>2011-04-04T18:53:11Z</time>
      </trkpt>
      <trkpt lat="45.99245" lon="3.72403">
        <ele>838</ele>
        <time>2011-04-04T18:53:11Z</time>
      </trkpt>
      <trkpt lat="45.99277" lon="3.72246">
        <ele>840</ele>
        <time>2011-04-04T18:53:11Z</time>
      </trkpt>
      <trkpt lat="45.99271" lon="3.72119">
        <ele>844</ele>
        <time>2011-04-04T18:53:11Z</time>
      </trkpt>
      <trkpt lat="45.9933" lon="3.72035">
        <ele>838</ele>
        <time>2011-04-04T18:53:11Z</time>
      </trkpt>
      <trkpt lat="45.9933" lon="3.71883">
        <ele>848</ele>
        <time>2011-04-04T18:53:11Z</time>
      </trkpt>
      <trkpt lat="45.99367" lon="3.71698">
        <ele>850</ele>
        <time>2011-04-04T18:53:11Z</time>
      </trkpt>
      <trkpt lat="45.99319" lon="3.71609">
        <ele>863</ele>
        <time>2011-04-04T18:53:11Z</time>
      </trkpt>
      <trkpt lat="45.99267" lon="3.71616">
        <ele>873</ele>
        <time>2011-04-04T18:53:11Z</time>
      </trkpt>
      <trkpt lat="45.99303" lon="3.7156">
        <ele>869</ele>
        <time>2011-04-04T18:53:11Z</time>
      </trkpt>
      <trkpt lat="45.99354" lon="3.71569">
        <ele>869</ele>
        <time>2011-04-04T18:53:11Z</time>
      </trkpt>
      <trkpt lat="45.99484" lon="3.71647">
        <ele>869</ele>
        <time>2011-04-04T18:53:11Z</time>
      </trkpt>
      <trkpt lat="45.99572" lon="3.71649">
        <ele>864</ele>
        <time>2011-04-04T18:53:11Z</time>
      </trkpt>
      <trkpt lat="45.99632" lon="3.71609">
        <ele>868</ele>
        <time>2011-04-04T18:53:11Z</time>
      </trkpt>
      <trkpt lat="45.99673" lon="3.71551">
        <ele>880</ele>
        <time>2011-04-04T18:53:11Z</time>
      </trkpt>
      <trkpt lat="45.99699" lon="3.71479">
        <ele>888</ele>
        <time>2011-04-04T18:53:11Z</time>
      </trkpt>
      <trkpt lat="45.99715" lon="3.71433">
        <ele>889</ele>
        <time>2011-04-04T18:53:11Z</time>
      </trkpt>
      <trkpt lat="45.99707" lon="3.71353">
        <ele>893</ele>
        <time>2011-04-04T18:53:11Z</time>
      </trkpt>
      <trkpt lat="45.99687" lon="3.71283">
        <ele>900</ele>
        <time>2011-04-04T18:53:11Z</time>
      </trkpt>
      <trkpt lat="45.99588" lon="3.71396">
        <ele>912</ele>
        <time>2011-04-04T18:53:11Z</time>
      </trkpt>
      <trkpt lat="45.99539" lon="3.714">
        <ele>917</ele>
        <time>2011-04-04T18:53:11Z</time>
      </trkpt>
      <trkpt lat="45.99508" lon="3.71356">
        <ele>926</ele>
        <time>2011-04-04T18:53:11Z</time>
      </trkpt>
      <trkpt lat="45.99517" lon="3.71201">
        <ele>942</ele>
        <time>2011-04-04T18:53:11Z</time>
      </trkpt>
      <trkpt lat="45.99512" lon="3.71113">
        <ele>957</ele>
        <time>2011-04-04T18:53:11Z</time>
      </trkpt>
      <trkpt lat="45.99477" lon="3.71027">
        <ele>966</ele>
        <time>2011-04-04T18:53:11Z</time>
      </trkpt>
      <trkpt lat="45.99559" lon="3.70959">
        <ele>962</ele>
        <time>2011-04-04T18:53:11Z</time>
      </trkpt>
      <trkpt lat="45.99646" lon="3.70918">
        <ele>961</ele>
        <time>2011-04-04T18:53:11Z</time>
      </trkpt>
      <trkpt lat="45.99734" lon="3.70899">
        <ele>953</ele>
        <time>2011-04-04T18:53:11Z</time>
      </trkpt>
      <trkpt lat="45.99927" lon="3.70919">
        <ele>942</ele>
        <time>2011-04-04T18:53:11Z</time>
      </trkpt>
      <trkpt lat="46.00051" lon="3.70915">
        <ele>926</ele>
        <time>2011-04-04T18:53:11Z</time>
      </trkpt>
      <trkpt lat="46.00135" lon="3.70837">
        <ele>920</ele>
        <time>2011-04-04T18:53:11Z</time>
      </trkpt>
      <trkpt lat="46.00243" lon="3.70829">
        <ele>902</ele>
        <time>2011-04-04T18:53:11Z</time>
      </trkpt>
      <trkpt lat="46.00306" lon="3.70831">
        <ele>885</ele>
        <time>2011-04-04T18:53:11Z</time>
      </trkpt>
      <trkpt lat="46.00395" lon="3.70769">
        <ele>877</ele>
        <time>2011-04-04T18:53:11Z</time>
      </trkpt>
      <trkpt lat="46.00439" lon="3.70697">
        <ele>883</ele>
        <time>2011-04-04T18:53:11Z</time>
      </trkpt>
      <trkpt lat="46.00588" lon="3.70667">
        <ele>884</ele>
        <time>2011-04-04T18:53:11Z</time>
      </trkpt>
      <trkpt lat="46.00788" lon="3.7052">
        <ele>883</ele>
        <time>2011-04-04T18:53:11Z</time>
      </trkpt>
      <trkpt lat="46.01079" lon="3.70429">
        <ele>883</ele>
        <time>2011-04-04T18:53:11Z</time>
      </trkpt>
      <trkpt lat="46.01112" lon="3.70391">
        <ele>883</ele>
        <time>2011-04-04T18:53:11Z</time>
      </trkpt>
      <trkpt lat="46.01171" lon="3.70413">
        <ele>882</ele>
        <time>2011-04-04T18:53:11Z</time>
      </trkpt>
      <trkpt lat="46.01368" lon="3.70346">
        <ele>875</ele>
        <time>2011-04-04T18:53:11Z</time>
      </trkpt>
      <trkpt lat="46.01504" lon="3.70251">
        <ele>852</ele>
        <time>2011-04-04T18:53:11Z</time>
      </trkpt>
      <trkpt lat="46.01641" lon="3.70286">
        <ele>849</ele>
        <time>2011-04-04T18:53:11Z</time>
      </trkpt>
      <trkpt lat="46.01709" lon="3.70241">
        <ele>853</ele>
        <time>2011-04-04T18:53:11Z</time>
      </trkpt>
      <trkpt lat="46.01781" lon="3.70103">
        <ele>852</ele>
        <time>2011-04-04T18:53:11Z</time>
      </trkpt>
      <trkpt lat="46.01832" lon="3.70045">
        <ele>850</ele>
        <time>2011-04-04T18:53:11Z</time>
      </trkpt>
      <trkpt lat="46.0195" lon="3.69981">
        <ele>843</ele>
        <time>2011-04-04T18:53:11Z</time>
      </trkpt>
      <trkpt lat="46.02031" lon="3.69978">
        <ele>834</ele>
        <time>2011-04-04T18:53:11Z</time>
      </trkpt>
      <trkpt lat="46.02094" lon="3.6986">
        <ele>834</ele>
        <time>2011-04-04T18:53:11Z</time>
      </trkpt>
      <trkpt lat="46.02294" lon="3.6971">
        <ele>842</ele>
        <time>2011-04-04T18:53:11Z</time>
      </trkpt>
      <trkpt lat="46.02385" lon="3.69614">
        <ele>849</ele>
        <time>2011-04-04T18:53:11Z</time>
      </trkpt>
      <trkpt lat="46.02457" lon="3.69572">
        <ele>853</ele>
        <time>2011-04-04T18:53:11Z</time>
      </trkpt>
      <trkpt lat="46.02553" lon="3.69536">
        <ele>859</ele>
        <time>2011-04-04T18:53:11Z</time>
      </trkpt>
      <trkpt lat="46.02731" lon="3.69365">
        <ele>864</ele>
        <time>2011-04-04T18:53:11Z</time>
      </trkpt>
      <trkpt lat="46.02771" lon="3.69371">
        <ele>865</ele>
        <time>2011-04-04T18:53:11Z</time>
      </trkpt>
      <trkpt lat="46.02804" lon="3.6933">
        <ele>865</ele>
        <time>2011-04-04T18:53:11Z</time>
      </trkpt>
      <trkpt lat="46.02878" lon="3.69337">
        <ele>856</ele>
        <time>2011-04-04T18:53:11Z</time>
      </trkpt>
      <trkpt lat="46.02917" lon="3.69328">
        <ele>851</ele>
        <time>2011-04-04T18:53:11Z</time>
      </trkpt>
      <trkpt lat="46.0295" lon="3.69306">
        <ele>850</ele>
        <time>2011-04-04T18:53:11Z</time>
      </trkpt>
      <trkpt lat="46.03055" lon="3.69285">
        <ele>836</ele>
        <time>2011-04-04T18:53:11Z</time>
      </trkpt>
      <trkpt lat="46.03105" lon="3.69286">
        <ele>827</ele>
        <time>2011-04-04T18:53:11Z</time>
      </trkpt>
      <trkpt lat="46.03217" lon="3.69217">
        <ele>811</ele>
        <time>2011-04-04T18:53:11Z</time>
      </trkpt>
      <trkpt lat="46.0326" lon="3.69132">
        <ele>807</ele>
        <time>2011-04-04T18:53:11Z</time>
      </trkpt>
      <trkpt lat="46.03298" lon="3.6911">
        <ele>799</ele>
        <time>2011-04-04T18:53:11Z</time>
      </trkpt>
      <trkpt lat="46.03334" lon="3.69119">
        <ele>792</ele>
        <time>2011-04-04T18:53:11Z</time>
      </trkpt>
      <trkpt lat="46.03355" lon="3.69166">
        <ele>786</ele>
        <time>2011-04-04T18:53:11Z</time>
      </trkpt>
      <trkpt lat="46.03445" lon="3.6915">
        <ele>773</ele>
        <time>2011-04-04T18:53:11Z</time>
      </trkpt>
      <trkpt lat="46.03444" lon="3.69191">
        <ele>773</ele>
        <time>2011-04-04T18:53:11Z</time>
      </trkpt>
      <trkpt lat="46.03467" lon="3.69264">
        <ele>771</ele>
        <time>2011-04-04T18:53:11Z</time>
      </trkpt>
      <trkpt lat="46.03518" lon="3.69366">
        <ele>767</ele>
        <time>2011-04-04T18:53:11Z</time>
      </trkpt>
      <trkpt lat="46.03565" lon="3.69447">
        <ele>761</ele>
        <time>2011-04-04T18:53:11Z</time>
      </trkpt>
      <trkpt lat="46.0364" lon="3.69423">
        <ele>764</ele>
        <time>2011-04-04T18:53:11Z</time>
      </trkpt>
      <trkpt lat="46.0369" lon="3.69438">
        <ele>763</ele>
        <time>2011-04-04T18:53:11Z</time>
      </trkpt>
      <trkpt lat="46.03768" lon="3.69481">
        <ele>757</ele>
        <time>2011-04-04T18:53:11Z</time>
      </trkpt>
      <trkpt lat="46.03828" lon="3.6949">
        <ele>750</ele>
        <time>2011-04-04T18:53:11Z</time>
      </trkpt>
      <trkpt lat="46.03871" lon="3.69514">
        <ele>744</ele>
        <time>2011-04-04T18:53:11Z</time>
      </trkpt>
      <trkpt lat="46.03897" lon="3.69546">
        <ele>739</ele>
        <time>2011-04-04T18:53:11Z</time>
      </trkpt>
      <trkpt lat="46.03913" lon="3.69583">
        <ele>734</ele>
        <time>2011-04-04T18:53:11Z</time>
      </trkpt>
      <trkpt lat="46.03929" lon="3.69632">
        <ele>728</ele>
        <time>2011-04-04T18:53:11Z</time>
      </trkpt>
      <trkpt lat="46.03952" lon="3.69659">
        <ele>723</ele>
        <time>2011-04-04T18:53:11Z</time>
      </trkpt>
      <trkpt lat="46.04009" lon="3.69691">
        <ele>715</ele>
        <time>2011-04-04T18:53:11Z</time>
      </trkpt>
      <trkpt lat="46.04035" lon="3.69725">
        <ele>712</ele>
        <time>2011-04-04T18:53:11Z</time>
      </trkpt>
      <trkpt lat="46.04138" lon="3.69748">
        <ele>694</ele>
        <time>2011-04-04T18:53:11Z</time>
      </trkpt>
      <trkpt lat="46.04163" lon="3.69749">
        <ele>687</ele>
        <time>2011-04-04T18:53:11Z</time>
      </trkpt>
      <trkpt lat="46.04183" lon="3.69734">
        <ele>683</ele>
        <time>2011-04-04T18:53:11Z</time>
      </trkpt>
      <trkpt lat="46.04212" lon="3.69743">
        <ele>674</ele>
        <time>2011-04-04T18:53:11Z</time>
      </trkpt>
      <trkpt lat="46.04263" lon="3.69963">
        <ele>650</ele>
        <time>2011-04-04T18:53:11Z</time>
      </trkpt>
      <trkpt lat="46.04261" lon="3.70005">
        <ele>645</ele>
        <time>2011-04-04T18:53:11Z</time>
      </trkpt>
      <trkpt lat="46.04278" lon="3.70044">
        <ele>642</ele>
        <time>2011-04-04T18:53:11Z</time>
      </trkpt>
      <trkpt lat="46.04313" lon="3.70027">
        <ele>645</ele>
        <time>2011-04-04T18:53:11Z</time>
      </trkpt>
      <trkpt lat="46.04337" lon="3.70107">
        <ele>640</ele>
        <time>2011-04-04T18:53:11Z</time>
      </trkpt>
      <trkpt lat="46.04371" lon="3.70129">
        <ele>636</ele>
        <time>2011-04-04T18:53:11Z</time>
      </trkpt>
      <trkpt lat="46.04446" lon="3.70136">
        <ele>629</ele>
        <time>2011-04-04T18:53:11Z</time>
      </trkpt>
      <trkpt lat="46.04641" lon="3.70118">
        <ele>621</ele>
        <time>2011-04-04T18:53:11Z</time>
      </trkpt>
      <trkpt lat="46.04675" lon="3.70149">
        <ele>613</ele>
        <time>2011-04-04T18:53:11Z</time>
      </trkpt>
      <trkpt lat="46.04743" lon="3.70154">
        <ele>608</ele>
        <time>2011-04-04T18:53:11Z</time>
      </trkpt>
      <trkpt lat="46.04789" lon="3.70196">
        <ele>598</ele>
        <time>2011-04-04T18:53:11Z</time>
      </trkpt>
      <trkpt lat="46.04842" lon="3.70146">
        <ele>605</ele>
        <time>2011-04-04T18:53:11Z</time>
      </trkpt>
      <trkpt lat="46.04927" lon="3.70135">
        <ele>600</ele>
        <time>2011-04-04T18:53:11Z</time>
      </trkpt>
      <trkpt lat="46.0499" lon="3.70098">
        <ele>604</ele>
        <time>2011-04-04T18:53:11Z</time>
      </trkpt>
      <trkpt lat="46.05084" lon="3.70092">
        <ele>613</ele>
        <time>2011-04-04T18:53:11Z</time>
      </trkpt>
      <trkpt lat="46.05166" lon="3.69996">
        <ele>618</ele>
        <time>2011-04-04T18:53:11Z</time>
      </trkpt>
      <trkpt lat="46.05436" lon="3.69977">
        <ele>576</ele>
        <time>2011-04-04T18:53:11Z</time>
      </trkpt>
      <trkpt lat="46.055" lon="3.6993">
        <ele>570</ele>
        <time>2011-04-04T18:53:11Z</time>
      </trkpt>
      <trkpt lat="46.05556" lon="3.69861">
        <ele>557</ele>
        <time>2011-04-04T18:53:11Z</time>
      </trkpt>
      <trkpt lat="46.05667" lon="3.69647">
        <ele>547</ele>
        <time>2011-04-04T18:53:11Z</time>
      </trkpt>
      <trkpt lat="46.05685" lon="3.69619">
        <ele>550</ele>
        <time>2011-04-04T18:53:11Z</time>
      </trkpt>
      <trkpt lat="46.05725" lon="3.69594">
        <ele>550</ele>
        <time>2011-04-04T18:53:11Z</time>
      </trkpt>
      <trkpt lat="46.0576" lon="3.6952">
        <ele>553</ele>
        <time>2011-04-04T18:53:11Z</time>
      </trkpt>
      <trkpt lat="46.05759" lon="3.69481">
        <ele>555</ele>
        <time>2011-04-04T18:53:11Z</time>
      </trkpt>
      <trkpt lat="46.0558" lon="3.69402">
        <ele>572</ele>
        <time>2011-04-04T18:53:11Z</time>
      </trkpt>
      <trkpt lat="46.05531" lon="3.69406">
        <ele>578</ele>
        <time>2011-04-04T18:53:11Z</time>
      </trkpt>
      <trkpt lat="46.0541" lon="3.69335">
        <ele>588</ele>
        <time>2011-04-04T18:53:11Z</time>
      </trkpt>
      <trkpt lat="46.05363" lon="3.69332">
        <ele>592</ele>
        <time>2011-04-04T18:53:11Z</time>
      </trkpt>
      <trkpt lat="46.05267" lon="3.69347">
        <ele>599</ele>
        <time>2011-04-04T18:53:11Z</time>
      </trkpt>
      <trkpt lat="46.05329" lon="3.69274">
        <ele>600</ele>
        <time>2011-04-04T18:53:11Z</time>
      </trkpt>
      <trkpt lat="46.05384" lon="3.69229">
        <ele>594</ele>
        <time>2011-04-04T18:53:11Z</time>
      </trkpt>
      <trkpt lat="46.05404" lon="3.69172">
        <ele>590</ele>
        <time>2011-04-04T18:53:11Z</time>
      </trkpt>
      <trkpt lat="46.0538" lon="3.69133">
        <ele>596</ele>
        <time>2011-04-04T18:53:11Z</time>
      </trkpt>
      <trkpt lat="46.05346" lon="3.69117">
        <ele>600</ele>
        <time>2011-04-04T18:53:11Z</time>
      </trkpt>
      <trkpt lat="46.0527" lon="3.68999">
        <ele>585</ele>
        <time>2011-04-04T18:53:11Z</time>
      </trkpt>
      <trkpt lat="46.05304" lon="3.68963">
        <ele>584</ele>
        <time>2011-04-04T18:53:11Z</time>
      </trkpt>
      <trkpt lat="46.05423" lon="3.68961">
        <ele>583</ele>
        <time>2011-04-04T18:53:11Z</time>
      </trkpt>
      <trkpt lat="46.05457" lon="3.68951">
        <ele>583</ele>
        <time>2011-04-04T18:53:11Z</time>
      </trkpt>
      <trkpt lat="46.05487" lon="3.68906">
        <ele>582</ele>
        <time>2011-04-04T18:53:11Z</time>
      </trkpt>
      <trkpt lat="46.05475" lon="3.68843">
        <ele>582</ele>
        <time>2011-04-04T18:53:11Z</time>
      </trkpt>
      <trkpt lat="46.05436" lon="3.6877">
        <ele>586</ele>
        <time>2011-04-04T18:53:11Z</time>
      </trkpt>
      <trkpt lat="46.05364" lon="3.6868">
        <ele>590</ele>
        <time>2011-04-04T18:53:11Z</time>
      </trkpt>
      <trkpt lat="46.05242" lon="3.68483">
        <ele>590</ele>
        <time>2011-04-04T18:53:11Z</time>
      </trkpt>
      <trkpt lat="46.05169" lon="3.68394">
        <ele>585</ele>
        <time>2011-04-04T18:53:11Z</time>
      </trkpt>
      <trkpt lat="46.05138" lon="3.68393">
        <ele>587</ele>
        <time>2011-04-04T18:53:11Z</time>
      </trkpt>
      <trkpt lat="46.05093" lon="3.68304">
        <ele>583</ele>
        <time>2011-04-04T18:53:11Z</time>
      </trkpt>
      <trkpt lat="46.0509" lon="3.6825">
        <ele>581</ele>
        <time>2011-04-04T18:53:11Z</time>
      </trkpt>
      <trkpt lat="46.05112" lon="3.68168">
        <ele>581</ele>
        <time>2011-04-04T18:53:11Z</time>
      </trkpt>
      <trkpt lat="46.05058" lon="3.68164">
        <ele>583</ele>
        <time>2011-04-04T18:53:11Z</time>
      </trkpt>
      <trkpt lat="46.05021" lon="3.68145">
        <ele>585</ele>
        <time>2011-04-04T18:53:11Z</time>
      </trkpt>
      <trkpt lat="46.04882" lon="3.68025">
        <ele>582</ele>
        <time>2011-04-04T18:53:11Z</time>
      </trkpt>
      <trkpt lat="46.04848" lon="3.68019">
        <ele>582</ele>
        <time>2011-04-04T18:53:11Z</time>
      </trkpt>
      <trkpt lat="46.04817" lon="3.68">
        <ele>582</ele>
        <time>2011-04-04T18:53:11Z</time>
      </trkpt>
      <trkpt lat="46.04756" lon="3.67895">
        <ele>585</ele>
        <time>2011-04-04T18:53:11Z</time>
      </trkpt>
      <trkpt lat="46.04697" lon="3.67819">
        <ele>595</ele>
        <time>2011-04-04T18:53:11Z</time>
      </trkpt>
      <trkpt lat="46.04719" lon="3.67775">
        <ele>601</ele>
        <time>2011-04-04T18:53:11Z</time>
      </trkpt>
      <trkpt lat="46.0485" lon="3.67701">
        <ele>598</ele>
        <time>2011-04-04T18:53:11Z</time>
      </trkpt>
      <trkpt lat="46.04935" lon="3.67672">
        <ele>586</ele>
        <time>2011-04-04T18:53:11Z</time>
      </trkpt>
      <trkpt lat="46.04977" lon="3.67624">
        <ele>583</ele>
        <time>2011-04-04T18:53:11Z</time>
      </trkpt>
      <trkpt lat="46.05047" lon="3.67429">
        <ele>580</ele>
        <time>2011-04-04T18:53:11Z</time>
      </trkpt>
      <trkpt lat="46.05049" lon="3.67298">
        <ele>578</ele>
        <time>2011-04-04T18:53:11Z</time>
      </trkpt>
      <trkpt lat="46.05071" lon="3.67257">
        <ele>582</ele>
        <time>2011-04-04T18:53:11Z</time>
      </trkpt>
      <trkpt lat="46.05093" lon="3.67242">
        <ele>583</ele>
        <time>2011-04-04T18:53:11Z</time>
      </trkpt>
      <trkpt lat="46.05131" lon="3.6724">
        <ele>582</ele>
        <time>2011-04-04T18:53:11Z</time>
      </trkpt>
      <trkpt lat="46.05176" lon="3.67208">
        <ele>582</ele>
        <time>2011-04-04T18:53:11Z</time>
      </trkpt>
      <trkpt lat="46.05231" lon="3.67072">
        <ele>580</ele>
        <time>2011-04-04T18:53:11Z</time>
      </trkpt>
      <trkpt lat="46.0526" lon="3.66925">
        <ele>582</ele>
        <time>2011-04-04T18:53:11Z</time>
      </trkpt>
      <trkpt lat="46.053" lon="3.66903">
        <ele>585</ele>
        <time>2011-04-04T18:53:11Z</time>
      </trkpt>
      <trkpt lat="46.05313" lon="3.66865">
        <ele>586</ele>
        <time>2011-04-04T18:53:11Z</time>
      </trkpt>
      <trkpt lat="46.0531" lon="3.6681">
        <ele>589</ele>
        <time>2011-04-04T18:53:11Z</time>
      </trkpt>
      <trkpt lat="46.05275" lon="3.66721">
        <ele>599</ele>
        <time>2011-04-04T18:53:11Z</time>
      </trkpt>
      <trkpt lat="46.0526" lon="3.66625">
        <ele>603</ele>
        <time>2011-04-04T18:53:11Z</time>
      </trkpt>
      <trkpt lat="46.05224" lon="3.66612">
        <ele>610</ele>
        <time>2011-04-04T18:53:11Z</time>
      </trkpt>
      <trkpt lat="46.05163" lon="3.66641">
        <ele>620</ele>
        <time>2011-04-04T18:53:11Z</time>
      </trkpt>
      <trkpt lat="46.05076" lon="3.66701">
        <ele>619</ele>
        <time>2011-04-04T18:53:11Z</time>
      </trkpt>
      <trkpt lat="46.05036" lon="3.66731">
        <ele>626</ele>
        <time>2011-04-04T18:53:11Z</time>
      </trkpt>
      <trkpt lat="46.05016" lon="3.66764">
        <ele>635</ele>
        <time>2011-04-04T18:53:11Z</time>
      </trkpt>
      <trkpt lat="46.05054" lon="3.6684">
        <ele>634</ele>
        <time>2011-04-04T18:53:11Z</time>
      </trkpt>
      <trkpt lat="46.0505" lon="3.6691">
        <ele>636</ele>
        <time>2011-04-04T18:53:11Z</time>
      </trkpt>
      <trkpt lat="46.05008" lon="3.66971">
        <ele>643</ele>
        <time>2011-04-04T18:53:11Z</time>
      </trkpt>
      <trkpt lat="46.04979" lon="3.6698">
        <ele>646</ele>
        <time>2011-04-04T18:53:11Z</time>
      </trkpt>
      <trkpt lat="46.04938" lon="3.66964">
        <ele>653</ele>
        <time>2011-04-04T18:53:11Z</time>
      </trkpt>
      <trkpt lat="46.0481" lon="3.67067">
        <ele>671</ele>
        <time>2011-04-04T18:53:11Z</time>
      </trkpt>
      <trkpt lat="46.0478" lon="3.67082">
        <ele>677</ele>
        <time>2011-04-04T18:53:11Z</time>
      </trkpt>
      <trkpt lat="46.04755" lon="3.67058">
        <ele>687</ele>
        <time>2011-04-04T18:53:11Z</time>
      </trkpt>
      <trkpt lat="46.04443" lon="3.66908">
        <ele>705</ele>
        <time>2011-04-04T18:53:11Z</time>
      </trkpt>
      <trkpt lat="46.04365" lon="3.6686">
        <ele>705</ele>
        <time>2011-04-04T18:53:11Z</time>
      </trkpt>
      <trkpt lat="46.04241" lon="3.66864">
        <ele>700</ele>
        <time>2011-04-04T18:53:11Z</time>
      </trkpt>
      <trkpt lat="46.03973" lon="3.66959">
        <ele>695</ele>
        <time>2011-04-04T18:53:11Z</time>
      </trkpt>
      <trkpt lat="46.03938" lon="3.66875">
        <ele>694</ele>
        <time>2011-04-04T18:53:11Z</time>
      </trkpt>
      <trkpt lat="46.03893" lon="3.66856">
        <ele>693</ele>
        <time>2011-04-04T18:53:11Z</time>
      </trkpt>
      <trkpt lat="46.03872" lon="3.66835">
        <ele>692</ele>
        <time>2011-04-04T18:53:11Z</time>
      </trkpt>
      <trkpt lat="46.03868" lon="3.66744">
        <ele>683</ele>
        <time>2011-04-04T18:53:11Z</time>
      </trkpt>
      <trkpt lat="46.03845" lon="3.66666">
        <ele>676</ele>
        <time>2011-04-04T18:53:11Z</time>
      </trkpt>
      <trkpt lat="46.03747" lon="3.66553">
        <ele>682</ele>
        <time>2011-04-04T18:53:11Z</time>
      </trkpt>
      <trkpt lat="46.03703" lon="3.66471">
        <ele>673</ele>
        <time>2011-04-04T18:53:11Z</time>
      </trkpt>
      <trkpt lat="46.03681" lon="3.66398">
        <ele>675</ele>
        <time>2011-04-04T18:53:11Z</time>
      </trkpt>
      <trkpt lat="46.03693" lon="3.66262">
        <ele>672</ele>
        <time>2011-04-04T18:53:11Z</time>
      </trkpt>
      <trkpt lat="46.03669" lon="3.66207">
        <ele>675</ele>
        <time>2011-04-04T18:53:11Z</time>
      </trkpt>
      <trkpt lat="46.03483" lon="3.66099">
        <ele>692</ele>
        <time>2011-04-04T18:53:11Z</time>
      </trkpt>
      <trkpt lat="46.03426" lon="3.66049">
        <ele>696</ele>
        <time>2011-04-04T18:53:11Z</time>
      </trkpt>
      <trkpt lat="46.03369" lon="3.66014">
        <ele>702</ele>
        <time>2011-04-04T18:53:11Z</time>
      </trkpt>
      <trkpt lat="46.03309" lon="3.66002">
        <ele>707</ele>
        <time>2011-04-04T18:53:11Z</time>
      </trkpt>
      <trkpt lat="46.03279" lon="3.66017">
        <ele>707</ele>
        <time>2011-04-04T18:53:11Z</time>
      </trkpt>
      <trkpt lat="46.03221" lon="3.66157">
        <ele>710</ele>
        <time>2011-04-04T18:53:11Z</time>
      </trkpt>
      <trkpt lat="46.03174" lon="3.66213">
        <ele>711</ele>
        <time>2011-04-04T18:53:11Z</time>
      </trkpt>
      <trkpt lat="46.02864" lon="3.66402">
        <ele>714</ele>
        <time>2011-04-04T18:53:11Z</time>
      </trkpt>
      <trkpt lat="46.02827" lon="3.66515">
        <ele>713</ele>
        <time>2011-04-04T18:53:11Z</time>
      </trkpt>
      <trkpt lat="46.02804" lon="3.66553">
        <ele>711</ele>
        <time>2011-04-04T18:53:11Z</time>
      </trkpt>
      <trkpt lat="46.02769" lon="3.66539">
        <ele>709</ele>
        <time>2011-04-04T18:53:11Z</time>
      </trkpt>
      <trkpt lat="46.02739" lon="3.66484">
        <ele>704</ele>
        <time>2011-04-04T18:53:11Z</time>
      </trkpt>
      <trkpt lat="46.02717" lon="3.66463">
        <ele>706</ele>
        <time>2011-04-04T18:53:11Z</time>
      </trkpt>
      <trkpt lat="46.02696" lon="3.66478">
        <ele>710</ele>
        <time>2011-04-04T18:53:11Z</time>
      </trkpt>
      <trkpt lat="46.0267" lon="3.66516">
        <ele>716</ele>
        <time>2011-04-04T18:53:11Z</time>
      </trkpt>
      <trkpt lat="46.02664" lon="3.66562">
        <ele>720</ele>
        <time>2011-04-04T18:53:11Z</time>
      </trkpt>
      <trkpt lat="46.0264" lon="3.6659">
        <ele>720</ele>
        <time>2011-04-04T18:53:11Z</time>
      </trkpt>
      <trkpt lat="46.02521" lon="3.66665">
        <ele>717</ele>
        <time>2011-04-04T18:53:11Z</time>
      </trkpt>
      <trkpt lat="46.02486" lon="3.66698">
        <ele>714</ele>
        <time>2011-04-04T18:53:11Z</time>
      </trkpt>
      <trkpt lat="46.02484" lon="3.66739">
        <ele>717</ele>
        <time>2011-04-04T18:53:11Z</time>
      </trkpt>
      <trkpt lat="46.02458" lon="3.66777">
        <ele>717</ele>
        <time>2011-04-04T18:53:11Z</time>
      </trkpt>
      <trkpt lat="46.02429" lon="3.66782">
        <ele>714</ele>
        <time>2011-04-04T18:53:11Z</time>
      </trkpt>
      <trkpt lat="46.02338" lon="3.66725">
        <ele>708</ele>
        <time>2011-04-04T18:53:11Z</time>
      </trkpt>
      <trkpt lat="46.02313" lon="3.66722">
        <ele>708</ele>
        <time>2011-04-04T18:53:11Z</time>
      </trkpt>
      <trkpt lat="46.02257" lon="3.66749">
        <ele>708</ele>
        <time>2011-04-04T18:53:11Z</time>
      </trkpt>
      <trkpt lat="46.02193" lon="3.66807">
        <ele>703</ele>
        <time>2011-04-04T18:53:11Z</time>
      </trkpt>
      <trkpt lat="46.0212" lon="3.66789">
        <ele>702</ele>
        <time>2011-04-04T18:53:11Z</time>
      </trkpt>
      <trkpt lat="46.02096" lon="3.6681">
        <ele>700</ele>
        <time>2011-04-04T18:53:11Z</time>
      </trkpt>
      <trkpt lat="46.02081" lon="3.66825">
        <ele>699</ele>
        <time>2011-04-04T18:53:11Z</time>
      </trkpt>
      <trkpt lat="46.02051" lon="3.66824">
        <ele>699</ele>
        <time>2011-04-04T18:53:11Z</time>
      </trkpt>
      <trkpt lat="46.02027" lon="3.66836">
        <ele>697</ele>
        <time>2011-04-04T18:53:11Z</time>
      </trkpt>
      <trkpt lat="46.01997" lon="3.66952">
        <ele>685</ele>
        <time>2011-04-04T18:53:11Z</time>
      </trkpt>
      <trkpt lat="46.0197" lon="3.66985">
        <ele>682</ele>
        <time>2011-04-04T18:53:11Z</time>
      </trkpt>
      <trkpt lat="46.01892" lon="3.66985">
        <ele>677</ele>
        <time>2011-04-04T18:53:11Z</time>
      </trkpt>
      <trkpt lat="46.01764" lon="3.67003">
        <ele>664</ele>
        <time>2011-04-04T18:53:11Z</time>
      </trkpt>
      <trkpt lat="46.01692" lon="3.67048">
        <ele>653</ele>
        <time>2011-04-04T18:53:11Z</time>
      </trkpt>
      <trkpt lat="46.01579" lon="3.67068">
        <ele>632</ele>
        <time>2011-04-04T18:53:11Z</time>
      </trkpt>
    </trkseg>
  </trk>
</gpx>